Year,Month,Day,Hour,Minute,Value (Times are PST for temperature in C)
2009,05,29,00,00,12.10
2009,05,29,00,01,12.10
2009,05,29,00,02,12.10
2009,05,29,00,03,12.10
2009,05,29,00,04,12.10
2009,05,29,00,05,12.10
2009,05,29,00,06,12.10
2009,05,29,00,07,12.10
2009,05,29,00,08,12.20
2009,05,29,00,09,12.30
2009,05,29,00,10,12.30
2009,05,29,00,11,12.40
2009,05,29,00,12,12.40
2009,05,29,00,13,12.50
2009,05,29,00,14,12.50
2009,05,29,00,15,12.50
2009,05,29,00,16,12.50
2009,05,29,00,17,12.40
2009,05,29,00,18,12.40
2009,05,29,00,19,12.40
2009,05,29,00,20,12.30
2009,05,29,00,21,12.20
2009,05,29,00,22,12.10
2009,05,29,00,23,12.10
2009,05,29,00,24,12.00
2009,05,29,00,25,11.90
2009,05,29,00,26,11.90
2009,05,29,00,27,11.80
2009,05,29,00,28,11.80
2009,05,29,00,29,11.80
2009,05,29,00,30,11.80
2009,05,29,00,31,11.90
2009,05,29,00,32,11.90
2009,05,29,00,33,12.00
2009,05,29,00,34,12.20
2009,05,29,00,35,12.30
2009,05,29,00,36,12.50
2009,05,29,00,37,12.60
2009,05,29,00,38,12.60
2009,05,29,00,39,12.70
2009,05,29,00,40,12.70
2009,05,29,00,41,12.70
2009,05,29,00,42,12.70
2009,05,29,00,43,12.60
2009,05,29,00,44,12.60
2009,05,29,00,45,12.60
2009,05,29,00,46,12.60
2009,05,29,00,47,12.50
2009,05,29,00,48,12.40
2009,05,29,00,49,12.40
2009,05,29,00,50,12.30
2009,05,29,00,51,12.30
2009,05,29,00,52,12.30
2009,05,29,00,53,12.20
2009,05,29,00,54,12.20
2009,05,29,00,55,12.30
2009,05,29,00,56,12.30
2009,05,29,00,57,12.30
2009,05,29,00,58,12.40
2009,05,29,00,59,12.40
2009,05,29,01,00,12.40
2009,05,29,01,01,12.50
2009,05,29,01,02,12.50
2009,05,29,01,03,12.50
2009,05,29,01,04,12.50
2009,05,29,01,05,12.40
2009,05,29,01,06,12.40
2009,05,29,01,07,12.30
2009,05,29,01,08,12.30
2009,05,29,01,09,12.30
2009,05,29,01,10,12.30
2009,05,29,01,11,12.30
2009,05,29,01,12,12.30
2009,05,29,01,13,12.40
2009,05,29,01,14,12.40
2009,05,29,01,15,12.40
2009,05,29,01,16,12.50
2009,05,29,01,17,12.50
2009,05,29,01,18,12.60
2009,05,29,01,19,12.60
2009,05,29,01,20,12.60
2009,05,29,01,21,12.50
2009,05,29,01,22,12.40
2009,05,29,01,23,12.40
2009,05,29,01,24,12.30
2009,05,29,01,25,12.30
2009,05,29,01,26,12.20
2009,05,29,01,27,12.20
2009,05,29,01,28,12.20
2009,05,29,01,29,12.10
2009,05,29,01,30,12.10
2009,05,29,01,31,12.10
2009,05,29,01,32,12.10
2009,05,29,01,33,12.00
2009,05,29,01,34,12.00
2009,05,29,01,35,12.00
2009,05,29,01,36,11.90
2009,05,29,01,37,11.90
2009,05,29,01,38,11.90
2009,05,29,01,39,11.80
2009,05,29,01,40,11.80
2009,05,29,01,41,11.70
2009,05,29,01,42,11.70
2009,05,29,01,43,11.70
2009,05,29,01,44,11.60
2009,05,29,01,45,11.60
2009,05,29,01,46,11.60
2009,05,29,01,47,11.60
2009,05,29,01,48,11.60
2009,05,29,01,49,11.50
2009,05,29,01,50,11.50
2009,05,29,01,51,11.50
2009,05,29,01,52,11.40
2009,05,29,01,53,11.40
2009,05,29,01,54,11.40
2009,05,29,01,55,11.40
2009,05,29,01,56,11.40
2009,05,29,01,57,11.40
2009,05,29,01,58,11.40
2009,05,29,01,59,11.30
2009,05,29,02,00,11.30
2009,05,29,02,01,11.30
2009,05,29,02,02,11.30
2009,05,29,02,03,11.30
2009,05,29,02,04,11.30
2009,05,29,02,05,11.30
2009,05,29,02,06,11.20
2009,05,29,02,07,11.20
2009,05,29,02,08,11.20
2009,05,29,02,09,11.20
2009,05,29,02,10,11.20
2009,05,29,02,11,11.20
2009,05,29,02,12,11.10
2009,05,29,02,13,11.10
2009,05,29,02,14,11.10
2009,05,29,02,15,11.10
2009,05,29,02,16,11.10
2009,05,29,02,17,11.10
2009,05,29,02,18,11.10
2009,05,29,02,19,11.10
2009,05,29,02,20,11.10
2009,05,29,02,21,11.10
2009,05,29,02,22,11.10
2009,05,29,02,23,11.10
2009,05,29,02,24,11.10
2009,05,29,02,25,11.10
2009,05,29,02,26,11.10
2009,05,29,02,27,11.10
2009,05,29,02,28,11.10
2009,05,29,02,29,11.10
2009,05,29,02,30,11.10
2009,05,29,02,31,11.10
2009,05,29,02,32,11.10
2009,05,29,02,33,11.00
2009,05,29,02,34,11.00
2009,05,29,02,35,11.00
2009,05,29,02,36,11.00
2009,05,29,02,37,10.90
2009,05,29,02,38,10.90
2009,05,29,02,39,10.90
2009,05,29,02,40,10.90
2009,05,29,02,41,10.80
2009,05,29,02,42,10.80
2009,05,29,02,43,10.80
2009,05,29,02,44,10.80
2009,05,29,02,45,10.80
2009,05,29,02,46,10.80
2009,05,29,02,47,10.70
2009,05,29,02,48,10.70
2009,05,29,02,49,10.70
2009,05,29,02,50,10.60
2009,05,29,02,51,10.60
2009,05,29,02,52,10.60
2009,05,29,02,53,10.50
2009,05,29,02,54,10.50
2009,05,29,02,55,10.50
2009,05,29,02,56,10.50
2009,05,29,02,57,10.40
2009,05,29,02,58,10.40
2009,05,29,02,59,10.40
2009,05,29,03,00,10.40
2009,05,29,03,01,10.40
2009,05,29,03,02,10.40
2009,05,29,03,03,10.40
2009,05,29,03,04,10.40
2009,05,29,03,05,10.30
2009,05,29,03,06,10.30
2009,05,29,03,07,10.30
2009,05,29,03,08,10.30
2009,05,29,03,09,10.30
2009,05,29,03,10,10.30
2009,05,29,03,11,10.30
2009,05,29,03,12,10.30
2009,05,29,03,13,10.40
2009,05,29,03,14,10.50
2009,05,29,03,15,10.60
2009,05,29,03,16,10.70
2009,05,29,03,17,10.90
2009,05,29,03,18,11.00
2009,05,29,03,19,11.10
2009,05,29,03,20,11.20
2009,05,29,03,21,11.30
2009,05,29,03,22,11.50
2009,05,29,03,23,11.60
2009,05,29,03,24,11.70
2009,05,29,03,25,11.80
2009,05,29,03,26,11.80
2009,05,29,03,27,11.90
2009,05,29,03,28,12.00
2009,05,29,03,29,12.10
2009,05,29,03,30,12.10
2009,05,29,03,31,12.20
2009,05,29,03,32,12.20
2009,05,29,03,33,12.30
2009,05,29,03,34,12.30
2009,05,29,03,35,12.30
2009,05,29,03,36,12.40
2009,05,29,03,37,12.40
2009,05,29,03,38,12.40
2009,05,29,03,39,12.50
2009,05,29,03,40,12.50
2009,05,29,03,41,12.60
2009,05,29,03,42,12.60
2009,05,29,03,43,12.60
2009,05,29,03,44,12.70
2009,05,29,03,45,12.70
2009,05,29,03,46,12.60
2009,05,29,03,47,12.60
2009,05,29,03,48,12.50
2009,05,29,03,49,12.40
2009,05,29,03,50,12.30
2009,05,29,03,51,12.20
2009,05,29,03,52,12.10
2009,05,29,03,53,12.00
2009,05,29,03,54,11.90
2009,05,29,03,55,11.80
2009,05,29,03,56,11.70
2009,05,29,03,57,11.50
2009,05,29,03,58,11.40
2009,05,29,03,59,11.30
2009,05,29,04,00,11.30
2009,05,29,04,01,11.20
2009,05,29,04,02,11.20
2009,05,29,04,03,11.20
2009,05,29,04,04,11.20
2009,05,29,04,05,11.20
2009,05,29,04,06,11.20
2009,05,29,04,07,11.20
2009,05,29,04,08,11.20
2009,05,29,04,09,11.20
2009,05,29,04,10,11.20
2009,05,29,04,11,11.20
2009,05,29,04,12,11.20
2009,05,29,04,13,11.20
2009,05,29,04,14,11.10
2009,05,29,04,15,11.10
2009,05,29,04,16,11.10
2009,05,29,04,17,11.00
2009,05,29,04,18,11.00
2009,05,29,04,19,10.90
2009,05,29,04,20,10.90
2009,05,29,04,21,10.80
2009,05,29,04,22,10.80
2009,05,29,04,23,10.80
2009,05,29,04,24,10.70
2009,05,29,04,25,10.70
2009,05,29,04,26,10.70
2009,05,29,04,27,10.70
2009,05,29,04,28,10.70
2009,05,29,04,29,10.60
2009,05,29,04,30,10.60
2009,05,29,04,31,10.60
2009,05,29,04,32,10.60
2009,05,29,04,33,10.60
2009,05,29,04,34,10.50
2009,05,29,04,35,10.50
2009,05,29,04,36,10.50
2009,05,29,04,37,10.40
2009,05,29,04,38,10.40
2009,05,29,04,39,10.40
2009,05,29,04,40,10.40
2009,05,29,04,41,10.40
2009,05,29,04,42,10.40
2009,05,29,04,43,10.40
2009,05,29,04,44,10.40
2009,05,29,04,45,10.40
2009,05,29,04,46,10.40
2009,05,29,04,47,10.40
2009,05,29,04,48,10.40
2009,05,29,04,49,10.40
2009,05,29,04,50,10.40
2009,05,29,04,51,10.40
2009,05,29,04,52,10.40
2009,05,29,04,53,10.30
2009,05,29,04,54,10.30
2009,05,29,04,55,10.30
2009,05,29,04,56,10.30
2009,05,29,04,57,10.30
2009,05,29,04,58,10.20
2009,05,29,04,59,10.20
2009,05,29,05,00,10.20
2009,05,29,05,01,10.20
2009,05,29,05,02,10.10
2009,05,29,05,03,10.10
2009,05,29,05,04,10.10
2009,05,29,05,05,10.10
2009,05,29,05,06,10.00
2009,05,29,05,07,10.00
2009,05,29,05,08,9.90
2009,05,29,05,09,9.90
2009,05,29,05,10,9.90
2009,05,29,05,11,9.90
2009,05,29,05,12,9.90
2009,05,29,05,13,9.80
2009,05,29,05,14,9.80
2009,05,29,05,15,9.80
2009,05,29,05,16,9.80
2009,05,29,05,17,9.80
2009,05,29,05,18,9.80
2009,05,29,05,19,9.80
2009,05,29,05,20,9.70
2009,05,29,05,21,9.70
2009,05,29,05,22,9.70
2009,05,29,05,23,9.70
2009,05,29,05,24,9.70
2009,05,29,05,25,9.70
2009,05,29,05,26,9.70
2009,05,29,05,27,9.70
2009,05,29,05,28,9.70
2009,05,29,05,29,9.70
2009,05,29,05,30,9.70
2009,05,29,05,31,9.70
2009,05,29,05,32,9.70
2009,05,29,05,33,9.80
2009,05,29,05,34,9.80
2009,05,29,05,35,9.80
2009,05,29,05,36,9.90
2009,05,29,05,37,9.90
2009,05,29,05,38,9.90
2009,05,29,05,39,9.90
2009,05,29,05,40,9.90
2009,05,29,05,41,9.90
2009,05,29,05,42,9.90
2009,05,29,05,43,9.90
2009,05,29,05,44,10.00
2009,05,29,05,45,10.00
2009,05,29,05,46,10.00
2009,05,29,05,47,10.00
2009,05,29,05,48,10.00
2009,05,29,05,49,10.10
2009,05,29,05,50,10.10
2009,05,29,05,51,10.10
2009,05,29,05,52,10.10
2009,05,29,05,53,10.10
2009,05,29,05,54,10.10
2009,05,29,05,55,10.10
2009,05,29,05,56,10.20
2009,05,29,05,57,10.20
2009,05,29,05,58,10.20
2009,05,29,05,59,10.30
2009,05,29,06,00,10.30
2009,05,29,06,01,10.30
2009,05,29,06,02,10.40
2009,05,29,06,03,10.50
2009,05,29,06,04,10.50
2009,05,29,06,05,10.60
2009,05,29,06,06,10.70
2009,05,29,06,07,10.70
2009,05,29,06,08,10.80
2009,05,29,06,09,10.80
2009,05,29,06,10,10.80
2009,05,29,06,11,10.80
2009,05,29,06,12,10.80
2009,05,29,06,13,10.90
2009,05,29,06,14,10.90
2009,05,29,06,15,11.00
2009,05,29,06,16,11.00
2009,05,29,06,17,11.10
2009,05,29,06,18,11.10
2009,05,29,06,19,11.10
2009,05,29,06,20,11.10
2009,05,29,06,21,11.10
2009,05,29,06,22,11.10
2009,05,29,06,23,11.10
2009,05,29,06,24,11.10
2009,05,29,06,25,11.10
2009,05,29,06,26,11.10
2009,05,29,06,27,11.20
2009,05,29,06,28,11.20
2009,05,29,06,29,11.20
2009,05,29,06,30,11.30
2009,05,29,06,31,11.30
2009,05,29,06,32,11.40
2009,05,29,06,33,11.50
2009,05,29,06,34,11.60
2009,05,29,06,35,11.80
2009,05,29,06,36,11.90
2009,05,29,06,37,12.00
2009,05,29,06,38,12.00
2009,05,29,06,39,12.10
2009,05,29,06,40,12.20
2009,05,29,06,41,12.20
2009,05,29,06,42,12.20
2009,05,29,06,43,12.30
2009,05,29,06,44,12.30
2009,05,29,06,45,12.40
2009,05,29,06,46,12.40
2009,05,29,06,47,12.40
2009,05,29,06,48,12.50
2009,05,29,06,49,12.50
2009,05,29,06,50,12.60
2009,05,29,06,51,12.60
2009,05,29,06,52,12.60
2009,05,29,06,53,12.70
2009,05,29,06,54,12.70
2009,05,29,06,55,12.80
2009,05,29,06,56,12.80
2009,05,29,06,57,12.90
2009,05,29,06,58,13.00
2009,05,29,06,59,13.10
2009,05,29,07,00,13.20
2009,05,29,07,01,13.30
2009,05,29,07,02,13.40
2009,05,29,07,03,13.50
2009,05,29,07,04,13.60
2009,05,29,07,05,13.60
2009,05,29,07,06,13.70
2009,05,29,07,07,13.80
2009,05,29,07,08,13.80
2009,05,29,07,09,13.90
2009,05,29,07,10,14.00
2009,05,29,07,11,14.10
2009,05,29,07,12,14.10
2009,05,29,07,13,14.20
2009,05,29,07,14,14.30
2009,05,29,07,15,14.40
2009,05,29,07,16,14.50
2009,05,29,07,17,14.70
2009,05,29,07,18,14.90
2009,05,29,07,19,15.00
2009,05,29,07,20,15.10
2009,05,29,07,21,15.30
2009,05,29,07,22,15.40
2009,05,29,07,23,15.60
2009,05,29,07,24,15.70
2009,05,29,07,25,15.80
2009,05,29,07,26,15.90
2009,05,29,07,27,16.10
2009,05,29,07,28,16.20
2009,05,29,07,29,16.30
2009,05,29,07,30,16.40
2009,05,29,07,31,16.40
2009,05,29,07,32,16.50
2009,05,29,07,33,16.50
2009,05,29,07,34,16.60
2009,05,29,07,35,16.70
2009,05,29,07,36,16.80
2009,05,29,07,37,16.90
2009,05,29,07,38,16.90
2009,05,29,07,39,17.00
2009,05,29,07,40,17.10
2009,05,29,07,41,17.20
2009,05,29,07,42,17.30
2009,05,29,07,43,17.30
2009,05,29,07,44,17.40
2009,05,29,07,45,17.50
2009,05,29,07,46,17.50
2009,05,29,07,47,17.60
2009,05,29,07,48,17.60
2009,05,29,07,49,17.70
2009,05,29,07,50,17.70
2009,05,29,07,51,17.80
2009,05,29,07,52,17.90
2009,05,29,07,53,18.00
2009,05,29,07,54,18.10
2009,05,29,07,55,18.10
2009,05,29,07,56,18.20
2009,05,29,07,57,18.20
2009,05,29,07,58,18.20
2009,05,29,07,59,18.20
2009,05,29,08,00,18.10
2009,05,29,08,01,18.10
2009,05,29,08,02,18.00
2009,05,29,08,03,18.00
2009,05,29,08,04,17.90
2009,05,29,08,05,17.80
2009,05,29,08,06,17.80
2009,05,29,08,07,17.70
2009,05,29,08,08,17.70
2009,05,29,08,09,17.70
2009,05,29,08,10,17.70
2009,05,29,08,11,17.70
2009,05,29,08,12,17.70
2009,05,29,08,13,17.80
2009,05,29,08,14,17.80
2009,05,29,08,15,17.80
2009,05,29,08,16,17.70
2009,05,29,08,17,17.60
2009,05,29,08,18,17.60
2009,05,29,08,19,17.50
2009,05,29,08,20,17.50
2009,05,29,08,21,17.50
2009,05,29,08,22,17.50
2009,05,29,08,23,17.50
2009,05,29,08,24,17.50
2009,05,29,08,25,17.50
2009,05,29,08,26,17.60
2009,05,29,08,27,17.60
2009,05,29,08,28,17.70
2009,05,29,08,29,17.70
2009,05,29,08,30,17.80
2009,05,29,08,31,17.80
2009,05,29,08,32,17.90
2009,05,29,08,33,18.00
2009,05,29,08,34,18.00
2009,05,29,08,35,18.10
2009,05,29,08,36,18.20
2009,05,29,08,37,18.20
2009,05,29,08,38,18.30
2009,05,29,08,39,18.40
2009,05,29,08,40,18.50
2009,05,29,08,41,18.50
2009,05,29,08,42,18.60
2009,05,29,08,43,18.70
2009,05,29,08,44,18.80
2009,05,29,08,45,18.80
2009,05,29,08,46,18.80
2009,05,29,08,47,18.90
2009,05,29,08,48,18.90
2009,05,29,08,49,18.80
2009,05,29,08,50,18.80
2009,05,29,08,51,18.70
2009,05,29,08,52,18.60
2009,05,29,08,53,18.60
2009,05,29,08,54,18.50
2009,05,29,08,55,18.50
2009,05,29,08,56,18.40
2009,05,29,08,57,18.40
2009,05,29,08,58,18.30
2009,05,29,08,59,18.30
2009,05,29,09,00,18.30
2009,05,29,09,01,18.30
2009,05,29,09,02,18.30
2009,05,29,09,03,18.30
2009,05,29,09,04,18.40
2009,05,29,09,05,18.40
2009,05,29,09,06,18.50
2009,05,29,09,07,18.50
2009,05,29,09,08,18.60
2009,05,29,09,09,18.70
2009,05,29,09,10,18.80
2009,05,29,09,11,18.80
2009,05,29,09,12,18.80
2009,05,29,09,13,18.90
2009,05,29,09,14,18.90
2009,05,29,09,15,18.90
2009,05,29,09,16,18.90
2009,05,29,09,17,18.90
2009,05,29,09,18,18.90
2009,05,29,09,19,18.90
2009,05,29,09,20,19.00
2009,05,29,09,21,19.00
2009,05,29,09,22,19.00
2009,05,29,09,23,19.00
2009,05,29,09,24,19.00
2009,05,29,09,25,19.00
2009,05,29,09,26,19.00
2009,05,29,09,27,19.10
2009,05,29,09,28,19.10
2009,05,29,09,29,19.20
2009,05,29,09,30,19.30
2009,05,29,09,31,19.30
2009,05,29,09,32,19.30
2009,05,29,09,33,19.40
2009,05,29,09,34,19.50
2009,05,29,09,35,19.50
2009,05,29,09,36,19.50
2009,05,29,09,37,19.50
2009,05,29,09,38,19.60
2009,05,29,09,39,19.60
2009,05,29,09,40,19.60
2009,05,29,09,41,19.60
2009,05,29,09,42,19.60
2009,05,29,09,43,19.70
2009,05,29,09,44,19.70
2009,05,29,09,45,19.80
2009,05,29,09,46,19.80
2009,05,29,09,47,19.70
2009,05,29,09,48,19.80
2009,05,29,09,49,20.00
2009,05,29,09,50,20.10
2009,05,29,09,51,20.10
2009,05,29,09,52,20.10
2009,05,29,09,53,20.10
2009,05,29,09,54,20.10
2009,05,29,09,55,20.10
2009,05,29,09,56,20.20
2009,05,29,09,57,20.20
2009,05,29,09,58,20.20
2009,05,29,09,59,20.30
2009,05,29,10,00,20.30
2009,05,29,10,01,20.20
2009,05,29,10,02,20.20
2009,05,29,10,03,20.20
2009,05,29,10,04,20.10
2009,05,29,10,05,20.10
2009,05,29,10,06,20.10
2009,05,29,10,07,20.10
2009,05,29,10,08,20.10
2009,05,29,10,09,20.20
2009,05,29,10,10,20.20
2009,05,29,10,11,20.30
2009,05,29,10,12,20.40
2009,05,29,10,13,20.60
2009,05,29,10,14,20.60
2009,05,29,10,15,20.70
2009,05,29,10,16,20.60
2009,05,29,10,17,20.60
2009,05,29,10,18,20.60
2009,05,29,10,19,20.50
2009,05,29,10,20,20.50
2009,05,29,10,21,20.50
2009,05,29,10,22,20.40
2009,05,29,10,23,20.50
2009,05,29,10,24,20.50
2009,05,29,10,25,20.60
2009,05,29,10,26,20.80
2009,05,29,10,27,20.90
2009,05,29,10,28,21.00
2009,05,29,10,29,21.00
2009,05,29,10,30,21.10
2009,05,29,10,31,21.20
2009,05,29,10,32,21.30
2009,05,29,10,33,21.40
2009,05,29,10,34,21.50
2009,05,29,10,35,21.60
2009,05,29,10,36,21.60
2009,05,29,10,37,21.50
2009,05,29,10,38,21.40
2009,05,29,10,39,21.30
2009,05,29,10,40,21.30
2009,05,29,10,41,21.20
2009,05,29,10,42,21.30
2009,05,29,10,43,21.30
2009,05,29,10,44,21.30
2009,05,29,10,45,21.30
2009,05,29,10,46,21.20
2009,05,29,10,47,21.30
2009,05,29,10,48,21.30
2009,05,29,10,49,21.40
2009,05,29,10,50,21.50
2009,05,29,10,51,21.50
2009,05,29,10,52,21.40
2009,05,29,10,53,21.40
2009,05,29,10,54,21.30
2009,05,29,10,55,21.30
2009,05,29,10,56,21.40
2009,05,29,10,57,21.40
2009,05,29,10,58,21.40
2009,05,29,10,59,21.30
2009,05,29,11,00,21.20
2009,05,29,11,01,21.30
2009,05,29,11,02,21.30
2009,05,29,11,03,21.30
2009,05,29,11,04,21.30
2009,05,29,11,05,21.40
2009,05,29,11,06,21.40
2009,05,29,11,07,21.50
2009,05,29,11,08,21.50
2009,05,29,11,09,21.50
2009,05,29,11,10,21.60
2009,05,29,11,11,21.70
2009,05,29,11,12,21.70
2009,05,29,11,13,21.70
2009,05,29,11,14,21.70
2009,05,29,11,15,21.60
2009,05,29,11,16,21.50
2009,05,29,11,17,21.50
2009,05,29,11,18,21.50
2009,05,29,11,19,21.60
2009,05,29,11,20,21.60
2009,05,29,11,21,21.50
2009,05,29,11,22,21.30
2009,05,29,11,23,21.30
2009,05,29,11,24,21.20
2009,05,29,11,25,21.20
2009,05,29,11,26,21.20
2009,05,29,11,27,21.30
2009,05,29,11,28,21.30
2009,05,29,11,29,21.20
2009,05,29,11,30,21.20
2009,05,29,11,31,21.00
2009,05,29,11,32,20.90
2009,05,29,11,33,20.80
2009,05,29,11,34,20.80
2009,05,29,11,35,20.80
2009,05,29,11,36,20.90
2009,05,29,11,37,20.90
2009,05,29,11,38,20.80
2009,05,29,11,39,20.80
2009,05,29,11,40,20.80
2009,05,29,11,41,20.80
2009,05,29,11,42,20.60
2009,05,29,11,43,20.50
2009,05,29,11,44,20.40
2009,05,29,11,45,20.30
2009,05,29,11,46,20.10
2009,05,29,11,47,20.00
2009,05,29,11,48,20.00
2009,05,29,11,49,20.00
2009,05,29,11,50,20.00
2009,05,29,11,51,20.00
2009,05,29,11,52,20.00
2009,05,29,11,53,20.00
2009,05,29,11,54,20.00
2009,05,29,11,55,20.00
2009,05,29,11,56,20.00
2009,05,29,11,57,20.00
2009,05,29,11,58,20.10
2009,05,29,11,59,20.20
2009,05,29,12,00,20.20
2009,05,29,12,01,20.20
2009,05,29,12,02,20.20
2009,05,29,12,03,20.20
2009,05,29,12,04,20.20
2009,05,29,12,05,20.20
2009,05,29,12,06,20.20
2009,05,29,12,07,20.30
2009,05,29,12,08,20.40
2009,05,29,12,09,20.40
2009,05,29,12,10,20.50
2009,05,29,12,11,20.60
2009,05,29,12,12,20.60
2009,05,29,12,13,20.50
2009,05,29,12,14,20.50
2009,05,29,12,15,20.60
2009,05,29,12,16,20.70
2009,05,29,12,17,20.80
2009,05,29,12,18,20.70
2009,05,29,12,19,20.70
2009,05,29,12,20,20.70
2009,05,29,12,21,20.60
2009,05,29,12,22,20.60
2009,05,29,12,23,20.60
2009,05,29,12,24,20.60
2009,05,29,12,25,20.50
2009,05,29,12,26,20.40
2009,05,29,12,27,20.30
2009,05,29,12,28,20.20
2009,05,29,12,29,20.20
2009,05,29,12,30,20.10
2009,05,29,12,31,20.10
2009,05,29,12,32,20.20
2009,05,29,12,33,20.30
2009,05,29,12,34,20.30
2009,05,29,12,35,20.30
2009,05,29,12,36,20.30
2009,05,29,12,37,20.30
2009,05,29,12,38,20.20
2009,05,29,12,39,20.10
2009,05,29,12,40,20.00
2009,05,29,12,41,19.80
2009,05,29,12,42,19.80
2009,05,29,12,43,19.90
2009,05,29,12,44,19.90
2009,05,29,12,45,19.90
2009,05,29,12,46,20.00
2009,05,29,12,47,20.20
2009,05,29,12,48,20.30
2009,05,29,12,49,20.50
2009,05,29,12,50,20.60
2009,05,29,12,51,20.40
2009,05,29,12,52,20.30
2009,05,29,12,53,20.30
2009,05,29,12,54,20.40
2009,05,29,12,55,20.40
2009,05,29,12,56,20.40
2009,05,29,12,57,20.50
2009,05,29,12,58,20.60
2009,05,29,12,59,20.50
2009,05,29,13,00,20.60
2009,05,29,13,01,20.50
2009,05,29,13,02,20.50
2009,05,29,13,03,20.50
2009,05,29,13,04,20.60
2009,05,29,13,05,20.70
2009,05,29,13,06,20.70
2009,05,29,13,07,20.80
2009,05,29,13,08,20.90
2009,05,29,13,09,20.90
2009,05,29,13,10,20.90
2009,05,29,13,11,20.80
2009,05,29,13,12,20.80
2009,05,29,13,13,20.90
2009,05,29,13,14,20.90
2009,05,29,13,15,21.00
2009,05,29,13,16,21.10
2009,05,29,13,17,21.30
2009,05,29,13,18,21.30
2009,05,29,13,19,21.40
2009,05,29,13,20,21.50
2009,05,29,13,21,21.40
2009,05,29,13,22,21.20
2009,05,29,13,23,21.00
2009,05,29,13,24,20.80
2009,05,29,13,25,20.70
2009,05,29,13,26,20.70
2009,05,29,13,27,20.70
2009,05,29,13,28,20.60
2009,05,29,13,29,20.60
2009,05,29,13,30,20.60
2009,05,29,13,31,20.70
2009,05,29,13,32,20.80
2009,05,29,13,33,20.80
2009,05,29,13,34,20.90
2009,05,29,13,35,20.70
2009,05,29,13,36,20.60
2009,05,29,13,37,20.40
2009,05,29,13,38,20.30
2009,05,29,13,39,20.20
2009,05,29,13,40,20.10
2009,05,29,13,41,20.00
2009,05,29,13,42,19.90
2009,05,29,13,43,19.80
2009,05,29,13,44,19.60
2009,05,29,13,45,19.50
2009,05,29,13,46,19.50
2009,05,29,13,47,19.50
2009,05,29,13,48,19.40
2009,05,29,13,49,19.30
2009,05,29,13,50,19.30
2009,05,29,13,51,19.40
2009,05,29,13,52,19.40
2009,05,29,13,53,19.50
2009,05,29,13,54,19.50
2009,05,29,13,55,19.60
2009,05,29,13,56,19.60
2009,05,29,13,57,19.60
2009,05,29,13,58,19.50
2009,05,29,13,59,19.40
2009,05,29,14,00,19.30
2009,05,29,14,01,19.30
2009,05,29,14,02,19.50
2009,05,29,14,03,19.60
2009,05,29,14,04,19.90
2009,05,29,14,05,19.90
2009,05,29,14,06,19.90
2009,05,29,14,07,20.00
2009,05,29,14,08,20.10
2009,05,29,14,09,19.90
2009,05,29,14,10,19.80
2009,05,29,14,11,19.50
2009,05,29,14,12,19.30
2009,05,29,14,13,19.20
2009,05,29,14,14,19.10
2009,05,29,14,15,19.10
2009,05,29,14,16,19.30
2009,05,29,14,17,19.40
2009,05,29,14,18,19.60
2009,05,29,14,19,19.70
2009,05,29,14,20,19.80
2009,05,29,14,21,19.90
2009,05,29,14,22,20.00
2009,05,29,14,23,20.00
2009,05,29,14,24,20.10
2009,05,29,14,25,20.20
2009,05,29,14,26,20.30
2009,05,29,14,27,20.30
2009,05,29,14,28,20.30
2009,05,29,14,29,20.40
2009,05,29,14,30,20.40
2009,05,29,14,31,20.50
2009,05,29,14,32,20.50
2009,05,29,14,33,20.60
2009,05,29,14,34,20.50
2009,05,29,14,35,20.50
2009,05,29,14,36,20.60
2009,05,29,14,37,20.60
2009,05,29,14,38,20.50
2009,05,29,14,39,20.50
2009,05,29,14,40,20.50
2009,05,29,14,41,20.50
2009,05,29,14,42,20.60
2009,05,29,14,43,20.60
2009,05,29,14,44,20.70
2009,05,29,14,45,20.70
2009,05,29,14,46,20.60
2009,05,29,14,47,20.60
2009,05,29,14,48,20.70
2009,05,29,14,49,20.70
2009,05,29,14,50,20.60
2009,05,29,14,51,20.60
2009,05,29,14,52,20.60
2009,05,29,14,53,20.70
2009,05,29,14,54,20.80
2009,05,29,14,55,20.70
2009,05,29,14,56,20.70
2009,05,29,14,57,20.90
2009,05,29,14,58,20.90
2009,05,29,14,59,20.90
2009,05,29,15,00,20.90
2009,05,29,15,01,20.90
2009,05,29,15,02,20.90
2009,05,29,15,03,20.80
2009,05,29,15,04,20.80
2009,05,29,15,05,20.70
2009,05,29,15,06,20.60
2009,05,29,15,07,20.50
2009,05,29,15,08,20.50
2009,05,29,15,09,20.60
2009,05,29,15,10,20.60
2009,05,29,15,11,20.70
2009,05,29,15,12,20.60
2009,05,29,15,13,20.60
2009,05,29,15,14,20.70
2009,05,29,15,15,20.80
2009,05,29,15,16,20.90
2009,05,29,15,17,20.80
2009,05,29,15,18,20.90
2009,05,29,15,19,21.00
2009,05,29,15,20,21.10
2009,05,29,15,21,21.20
2009,05,29,15,22,21.10
2009,05,29,15,23,21.10
2009,05,29,15,24,21.20
2009,05,29,15,25,21.20
2009,05,29,15,26,21.20
2009,05,29,15,27,21.20
2009,05,29,15,28,21.30
2009,05,29,15,29,21.30
2009,05,29,15,30,21.20
2009,05,29,15,31,21.00
2009,05,29,15,32,20.90
2009,05,29,15,33,20.80
2009,05,29,15,34,20.80
2009,05,29,15,35,20.80
2009,05,29,15,36,20.90
2009,05,29,15,37,20.90
2009,05,29,15,38,20.90
2009,05,29,15,39,21.00
2009,05,29,15,40,21.10
2009,05,29,15,41,21.10
2009,05,29,15,42,21.10
2009,05,29,15,43,21.10
2009,05,29,15,44,21.10
2009,05,29,15,45,21.20
2009,05,29,15,46,21.20
2009,05,29,15,47,21.10
2009,05,29,15,48,21.10
2009,05,29,15,49,21.00
2009,05,29,15,50,20.90
2009,05,29,15,51,20.80
2009,05,29,15,52,20.70
2009,05,29,15,53,20.60
2009,05,29,15,54,20.40
2009,05,29,15,55,20.30
2009,05,29,15,56,20.30
2009,05,29,15,57,20.40
2009,05,29,15,58,20.50
2009,05,29,15,59,20.60
2009,05,29,16,00,20.80
2009,05,29,16,01,20.80
2009,05,29,16,02,20.90
2009,05,29,16,03,20.90
2009,05,29,16,04,21.00
2009,05,29,16,05,21.10
2009,05,29,16,06,21.20
2009,05,29,16,07,21.10
2009,05,29,16,08,21.10
2009,05,29,16,09,21.20
2009,05,29,16,10,21.20
2009,05,29,16,11,21.40
2009,05,29,16,12,21.50
2009,05,29,16,13,21.70
2009,05,29,16,14,21.80
2009,05,29,16,15,21.90
2009,05,29,16,16,21.80
2009,05,29,16,17,21.80
2009,05,29,16,18,21.70
2009,05,29,16,19,21.60
2009,05,29,16,20,21.50
2009,05,29,16,21,21.40
2009,05,29,16,22,21.30
2009,05,29,16,23,21.40
2009,05,29,16,24,21.30
2009,05,29,16,25,21.30
2009,05,29,16,26,21.30
2009,05,29,16,27,21.20
2009,05,29,16,28,21.20
2009,05,29,16,29,21.30
2009,05,29,16,30,21.40
2009,05,29,16,31,21.50
2009,05,29,16,32,21.60
2009,05,29,16,33,21.60
2009,05,29,16,34,21.70
2009,05,29,16,35,21.70
2009,05,29,16,36,21.80
2009,05,29,16,37,21.80
2009,05,29,16,38,21.70
2009,05,29,16,39,21.60
2009,05,29,16,40,21.50
2009,05,29,16,41,21.40
2009,05,29,16,42,21.30
2009,05,29,16,43,21.30
2009,05,29,16,44,21.30
2009,05,29,16,45,21.20
2009,05,29,16,46,21.20
2009,05,29,16,47,21.20
2009,05,29,16,48,21.20
2009,05,29,16,49,21.30
2009,05,29,16,50,21.30
2009,05,29,16,51,21.40
2009,05,29,16,52,21.50
2009,05,29,16,53,21.60
2009,05,29,16,54,21.60
2009,05,29,16,55,21.70
2009,05,29,16,56,21.80
2009,05,29,16,57,21.80
2009,05,29,16,58,21.80
2009,05,29,16,59,21.80
2009,05,29,17,00,21.90
2009,05,29,17,01,21.90
2009,05,29,17,02,22.00
2009,05,29,17,03,22.10
2009,05,29,17,04,22.00
2009,05,29,17,05,22.00
2009,05,29,17,06,22.00
2009,05,29,17,07,21.90
2009,05,29,17,08,21.90
2009,05,29,17,09,21.80
2009,05,29,17,10,21.80
2009,05,29,17,11,21.80
2009,05,29,17,12,21.80
2009,05,29,17,13,21.70
2009,05,29,17,14,21.60
2009,05,29,17,15,21.30
2009,05,29,17,16,21.20
2009,05,29,17,17,21.00
2009,05,29,17,18,20.90
2009,05,29,17,19,20.90
2009,05,29,17,20,20.90
2009,05,29,17,21,20.90